"Pseudo-MPEC" for RFD0044

Created 2023 Nov 30 6:22:06 UT using Find_Orb

Click here for an explanation of pseudo-MPECs

 
 Astrometry: 
     RFD0044*5C2023 11 11.34606505 17 49.430+20 26 10.22   ~BBCM       VNEOCPU94
     RFD0044 5C2023 11 11.34795705 17 49.501+20 26 11.45   ~BBCM 21.0 GVNEOCPU94
     RFD0044 5C2023 11 11.35364605 17 49.655+20 26 15.21   ~BBCM 21.0 GVNEOCPU94
     RFD0044 5C2023 11 11.36311305 17 49.967+20 26 21.73   ~BBCM 21.4 GVNEOCPU94
     RFD0044 5C2023 11 11.36311905 17 49.892+20 26 21.70   ~BBCM       VNEOCPU94

Station data:
(U94) iTelescope Observatory, Beryl Junction  (N37.737780 W113.697500)
   US/Utah.  Observer F. D. Romanov. 0.51-m f/4.5 Corrected Dall-Kirkham +
   CCD0.51-m f/6.8 astrograph + f/4.5 focal reducer + CCD.

Orbital elements:  RFD0044
   Perihelion 2023 Oct 9.18081 +/- 41.3 TT =  4:20:21 (JD 2460226.68081)
Epoch 2023 Nov 11.0 TT = JDT 2460259.5   Earth MOID: 0.2436   Ju: 0.0386
M   3.02077980 +/- 28               Ma: 0.0067                   AutoNEOCP
n   0.09204309 +/- 0.226            Peri.  316.40882 +/- 110
a   4.85819844 +/- 7.94             Node    70.07863 +/- 28
e   0.7456104 +/- 0.252             Incl.    3.15451 +/- 3.6
P  10.71                   H 21.92  G  0.15   U 11.7  SR
q 1.23587512 +/- 0.509    Q 8.48052177 +/- 201            (J2000 ecliptic)
From 5 observations 2023 Nov. 11 (24.6 min); mean residual 0".24
Residuals in arcseconds: 
231111 U94  .10-  .05+    231111 U94  .03-  .10-    231111 U94  .53-  .02-    
231111 U94  .12+  .00     231111 U94  .53+  .02+    

Ephemerides (geocentric):
Date (UTC) HH   RA             Dec           delta  r     elong  mag " sig PA
---- --------  ------------   ------------  ------ ------ -----  --- --------
2023 11 30 06  05 19 49.467   +23 22 51.98  .43464 1.4127 166.6 21.5  74d  79
2023 11 30 07  05 19 48.837   +23 23 10.58  .43485 1.4130 166.7 21.5  74d  79
2023 11 30 08  05 19 48.205   +23 23 29.15  .43506 1.4133 166.7 21.5  74d  79
2023 11 30 09  05 19 47.571   +23 23 47.71  .43527 1.4135 166.8 21.5  74d  79
2023 11 30 10  05 19 46.934   +23 24 06.25  .43549 1.4138 166.8 21.5  74d  79
2023 11 30 11  05 19 46.295   +23 24 24.76  .43570 1.4140 166.9 21.5  74d  79
2023 11 30 12  05 19 45.654   +23 24 43.25  .43592 1.4143 166.9 21.5  74d  80
2023 11 30 13  05 19 45.011   +23 25 01.72  .43613 1.4145 166.9 21.5  74d  80
2023 11 30 14  05 19 44.366   +23 25 20.16  .43635 1.4148 167.0 21.5  74d  80
2023 11 30 15  05 19 43.718   +23 25 38.59  .43656 1.4151 167.0 21.5  74d  80
2023 11 30 16  05 19 43.069   +23 25 56.99  .43678 1.4153 167.1 21.5  75d  80
2023 11 30 17  05 19 42.417   +23 26 15.37  .43699 1.4156 167.1 21.5  75d  80
2023 11 30 18  05 19 41.763   +23 26 33.73  .43721 1.4158 167.2 21.5  75d  80
2023 11 30 19  05 19 41.107   +23 26 52.07  .43743 1.4161 167.2 21.5  75d  80
2023 11 30 20  05 19 40.449   +23 27 10.38  .43764 1.4164 167.3 21.5  75d  80
2023 11 30 21  05 19 39.789   +23 27 28.68  .43786 1.4166 167.3 21.5  75d  80
2023 11 30 22  05 19 39.127   +23 27 46.95  .43808 1.4169 167.3 21.5  75d  80
2023 11 30 23  05 19 38.463   +23 28 05.20  .43829 1.4171 167.4 21.5  75d  80
2023 12 01 00  05 19 37.796   +23 28 23.42  .43851 1.4174 167.4 21.5  75d  80
2023 12 01 01  05 19 37.128   +23 28 41.63  .43873 1.4177 167.5 21.5  75d  80
2023 12 01 02  05 19 36.458   +23 28 59.81  .43895 1.4179 167.5 21.5  75d  80
2023 12 01 03  05 19 35.786   +23 29 17.98  .43916 1.4182 167.6 21.5  75d  80
2023 12 01 04  05 19 35.111   +23 29 36.12  .43938 1.4184 167.6 21.5  75d  80
2023 12 01 05  05 19 34.435   +23 29 54.23  .43960 1.4187 167.7 21.5  75d  80
2023 12 01 06  05 19 33.757   +23 30 12.33  .43982 1.4190 167.7 21.5  75d  79
2023 12 01 07  05 19 33.077   +23 30 30.40  .44004 1.4192 167.7 21.5  75d  79
2023 12 01 08  05 19 32.394   +23 30 48.46  .44026 1.4195 167.8 21.5  75d  79
2023 12 01 09  05 19 31.710   +23 31 06.49  .44048 1.4197 167.8 21.5  75d  79
2023 12 01 10  05 19 31.024   +23 31 24.49  .44070 1.4200 167.9 21.5  75d  79
2023 12 01 11  05 19 30.336   +23 31 42.48  .44092 1.4203 167.9 21.5  75d  79
2023 12 01 12  05 19 29.646   +23 32 00.44  .44114 1.4205 168.0 21.5  75d  79
2023 12 01 13  05 19 28.955   +23 32 18.39  .44136 1.4208 168.0 21.5  75d  79
2023 12 01 14  05 19 28.261   +23 32 36.31  .44158 1.4210 168.0 21.5  75d  79
2023 12 01 15  05 19 27.566   +23 32 54.21  .44181 1.4213 168.1 21.5  75d  79
2023 12 01 16  05 19 26.868   +23 33 12.08  .44203 1.4216 168.1 21.5  75d  79
2023 12 01 17  05 19 26.169   +23 33 29.94  .44225 1.4218 168.2 21.5  75d  79
2023 12 01 18  05 19 25.468   +23 33 47.77  .44247 1.4221 168.2 21.5  75d  79
2023 12 01 19  05 19 24.765   +23 34 05.58  .44269 1.4224 168.3 21.5  75d  79
2023 12 01 20  05 19 24.060   +23 34 23.37  .44292 1.4226 168.3 21.5  75d  79
2023 12 01 21  05 19 23.354   +23 34 41.14  .44314 1.4229 168.4 21.5  75d  79
2023 12 01 22  05 19 22.646   +23 34 58.88  .44336 1.4231 168.4 21.5  75d  79
2023 12 01 23  05 19 21.935   +23 35 16.61  .44359 1.4234 168.4 21.5  75d  79
2023 12 02 00  05 19 21.224   +23 35 34.31  .44381 1.4237 168.5 21.5  75d  79
2023 12 02 01  05 19 20.510   +23 35 51.99  .44404 1.4239 168.5 21.5  75d  79
2023 12 02 02  05 19 19.795   +23 36 09.65  .44426 1.4242 168.6 21.5  75d  79
2023 12 02 03  05 19 19.078   +23 36 27.28  .44448 1.4245 168.6 21.5  75d  79
2023 12 02 04  05 19 18.359   +23 36 44.90  .44471 1.4247 168.7 21.5  75d  79
2023 12 02 05  05 19 17.638   +23 37 02.49  .44493 1.4250 168.7 21.5  75d  79